When you browse on this site, cookies collect data to enhance your experience and personalize the content and advertising you see.
Visit our Privacy Policy to learn more. By continuing to use the site, you agree to this use of cookies and data.
  • In Lithuania
  • List of Countries
  • For 7 days
  • Water Temperature
  • Satellite Maps
  • Weather Map
  • Weather Widgets
  • user-avatar
    Login

    Hourly Weather Namibe

    Today, 18 December, Tuesday

    Time Temperature Precipitation Wind Pressure Humidity
    00:00 +26°C° 0 mm 2 mps 759 mmHg 80%
    01:00 +25°C° 0 mm 2 mps 760 mmHg 83%
    02:00 +25°C° 0 mm 1 mps 759 mmHg 82%
    03:00 +25°C° 0 mm 1 mps 759 mmHg 81%
    04:00 +26°C° 0 mm 1 mps 759 mmHg 80%
    05:00 +26°C° 0 mm 1 mps 759 mmHg 80%
    06:00 +26°C° 0 mm 1 mps 760 mmHg 79%
    07:00 +24°C° 0 mm 0 mps 760 mmHg 78%
    08:00 +28°C° 0 mm 1 mps 760 mmHg 68%
    09:00 +30°C° 0 mm 1 mps 760 mmHg 59%
    10:00 +31°C° 0 mm 2 mps 760 mmHg 50%
    11:00 +34°C° 0 mm 3 mps 759 mmHg 46%
    12:00 +35°C° 0 mm 4 mps 759 mmHg 43%
    13:00 +36°C° 0 mm 5 mps 758 mmHg 40%
    14:00 +35°C° 0 mm 5 mps 758 mmHg 41%
    15:00 +34°C° 0 mm 5 mps 757 mmHg 43%
    16:00 +34°C° 0 mm 5 mps 757 mmHg 44%
    17:00 +32°C° 0 mm 5 mps 758 mmHg 51%
    18:00 +30°C° 0 mm 4 mps 758 mmHg 58%
    19:00 +28°C° 0 mm 4 mps 758 mmHg 65%
    20:00 +27°C° 0 mm 3 mps 759 mmHg 68%
    21:00 +27°C° 0 mm 3 mps 760 mmHg 71%
    22:00 +26°C° 0 mm 2 mps 760 mmHg 74%
    23:00 +26°C° 0 mm 2 mps 760 mmHg 75%

    Tomorrow, 19 December, Wednesday

    Time Temperature Precipitation Wind Pressure Humidity
    00:00 +26°C° 0 mm 3 mps 760 mmHg 76%
    01:00 +26°C° 0 mm 3 mps 760 mmHg 77%
    02:00 +26°C° 0 mm 3 mps 759 mmHg 78%
    03:00 +25°C° 0 mm 3 mps 759 mmHg 79%
    04:00 +25°C° 0 mm 3 mps 758 mmHg 80%
    05:00 +25°C° 0 mm 3 mps 759 mmHg 79%
    06:00 +26°C° 0 mm 2 mps 759 mmHg 78%
    07:00 +26°C° 0 mm 2 mps 759 mmHg 77%
    08:00 +28°C° 0 mm 2 mps 759 mmHg 68%
    09:00 +30°C° 0 mm 2 mps 759 mmHg 59%
    10:00 +31°C° 0 mm 2 mps 759 mmHg 49%
    11:00 +34°C° 0 mm 3 mps 759 mmHg 46%
    12:00 +35°C° 0 mm 4 mps 758 mmHg 43%
    13:00 +36°C° 0 mm 5 mps 757 mmHg 40%
    14:00 +35°C° 0 mm 5 mps 757 mmHg 41%
    15:00 +34°C° 0 mm 6 mps 757 mmHg 43%
    16:00 +33°C° 0 mm 6 mps 756 mmHg 45%
    17:00 +32°C° 0 mm 5 mps 757 mmHg 51%
    18:00 +29°C° 0 mm 5 mps 757 mmHg 57%
    19:00 +27°C° 0 mm 4 mps 758 mmHg 63%
    20:00 +27°C° 0 mm 4 mps 758 mmHg 65%
    21:00 +27°C° 0 mm 3 mps 759 mmHg 66%
    22:00 +26°C° 0 mm 3 mps 759 mmHg 68%
    23:00 +26°C° 0 mm 3 mps 759 mmHg 69%

    Day after tomorrow, 20 December, Thursday

    Time Temperature Precipitation Wind Pressure Humidity
    00:00 +26°C° 0 mm 2 mps 759 mmHg 69%
    01:00 +26°C° 0 mm 2 mps 759 mmHg 70%
    02:00 +25°C° 0 mm 2 mps 758 mmHg 71%
    03:00 +25°C° 0 mm 2 mps 758 mmHg 73%
    04:00 +25°C° 0 mm 2 mps 758 mmHg 75%
    05:00 +25°C° 0 mm 2 mps 758 mmHg 75%
    06:00 +25°C° 0 mm 2 mps 759 mmHg 75%
    07:00 +25°C° 0 mm 2 mps 759 mmHg 75%
    08:00 +27°C° 0 mm 2 mps 759 mmHg 66%
    09:00 +29°C° 0 mm 2 mps 759 mmHg 56%
    10:00 +31°C° 0 mm 3 mps 759 mmHg 46%
    11:00 +33°C° 0 mm 4 mps 758 mmHg 44%
    12:00 +34°C° 0 mm 5 mps 758 mmHg 41%
    13:00 +35°C° 0 mm 5 mps 757 mmHg 38%
    14:00 +34°C° 0 mm 6 mps 757 mmHg 40%
    15:00 +33°C° 0 mm 6 mps 756 mmHg 42%
    16:00 +32°C° 0 mm 6 mps 756 mmHg 43%
    17:00 +29°C° 0 mm 5 mps 757 mmHg 49%
    18:00 +28°C° 0 mm 5 mps 757 mmHg 55%
    19:00 +26°C° 0 mm 4 mps 758 mmHg 61%
    20:00 +26°C° 0 mm 4 mps 759 mmHg 64%
    21:00 +25°C° 0 mm 3 mps 759 mmHg 66%
    22:00 +25°C° 0 mm 2 mps 760 mmHg 68%
    23:00 +25°C° 0 mm 2 mps 760 mmHg 70%

    21 December, Friday

    Time Temperature Precipitation Wind Pressure Humidity
    00:00 +24°C° 0 mm 3 mps 759 mmHg 71%
    01:00 +24°C° 0 mm 3 mps 759 mmHg 73%
    02:00 +24°C° 0 mm 3 mps 759 mmHg 75%
    03:00 +24°C° 0 mm 3 mps 759 mmHg 77%
    04:00 +22°C° 0 mm 3 mps 758 mmHg 78%
    05:00 +23°C° 0 mm 2 mps 759 mmHg 78%
    06:00 +23°C° 0 mm 2 mps 759 mmHg 78%
    07:00 +23°C° 0 mm 2 mps 760 mmHg 78%
    08:00 +26°C° 0 mm 2 mps 759 mmHg 67%
    09:00 +28°C° 0 mm 3 mps 759 mmHg 57%
    10:00 +30°C° 0 mm 3 mps 759 mmHg 46%
    11:00 +32°C° 0 mm 4 mps 758 mmHg 43%
    12:00 +33°C° 0 mm 5 mps 758 mmHg 41%
    13:00 +34°C° 0 mm 5 mps 757 mmHg 38%
    14:00 +33°C° 0 mm 6 mps 756 mmHg 38%
    15:00 +33°C° 0 mm 6 mps 756 mmHg 39%
    16:00 +32°C° 0 mm 6 mps 755 mmHg 40%
    17:00 +29°C° 0 mm 6 mps 756 mmHg 46%
    18:00 +28°C° 0 mm 5 mps 756 mmHg 52%
    19:00 +26°C° 0 mm 4 mps 757 mmHg 58%
    20:00 +26°C° 0 mm 4 mps 757 mmHg 60%
    21:00 +25°C° 0 mm 3 mps 758 mmHg 63%
    22:00 +25°C° 0 mm 2 mps 758 mmHg 66%
    23:00 +25°C° 0 mm 2 mps 758 mmHg 68%

    22 December, Saturday

    Time Temperature Precipitation Wind Pressure Humidity
    00:00 +24°C° 0 mm 3 mps 758 mmHg 70%
    01:00 +24°C° 0 mm 3 mps 758 mmHg 73%
    02:00 +24°C° 0 mm 3 mps 757 mmHg 75%
    03:00 +22°C° 0 mm 3 mps 757 mmHg 77%
    04:00 +23°C° 0 mm 2 mps 757 mmHg 80%
    05:00 +23°C° 0 mm 2 mps 758 mmHg 79%
    06:00 +23°C° 0 mm 2 mps 758 mmHg 78%
    07:00 +23°C° 0 mm 2 mps 758 mmHg 78%
    08:00 +25°C° 0 mm 2 mps 758 mmHg 67%
    09:00 +27°C° 0 mm 3 mps 758 mmHg 57%
    10:00 +29°C° 0 mm 3 mps 758 mmHg 46%
    11:00 +30°C° 0 mm 4 mps 757 mmHg 43%
    12:00 +33°C° 0 mm 4 mps 757 mmHg 40%
    13:00 +34°C° 0 mm 5 mps 756 mmHg 36%
    14:00 +33°C° 0 mm 5 mps 756 mmHg 39%
    15:00 +32°C° 0 mm 6 mps 755 mmHg 41%
    16:00 +30°C° 0 mm 6 mps 755 mmHg 44%
    17:00 +29°C° 0 mm 5 mps 755 mmHg 50%
    18:00 +27°C° 0 mm 5 mps 756 mmHg 56%
    19:00 +26°C° 0 mm 4 mps 756 mmHg 62%
    20:00 +25°C° 0 mm 4 mps 757 mmHg 65%
    21:00 +25°C° 0 mm 3 mps 757 mmHg 68%
    22:00 +24°C° 0 mm 3 mps 758 mmHg 71%
    23:00 +24°C° 0 mm 3 mps 757 mmHg 73%

    23 December, Sunday

    Time Temperature Precipitation Wind Pressure Humidity
    00:00 +24°C° 0 mm 2 mps 757 mmHg 74%
    01:00 +24°C° 0 mm 2 mps 757 mmHg 75%
    02:00 +24°C° 0 mm 2 mps 756 mmHg 77%
    03:00 +23°C° 0 mm 2 mps 756 mmHg 78%
    04:00 +23°C° 0 mm 2 mps 756 mmHg 79%
    05:00 +23°C° 0 mm 1 mps 756 mmHg 79%
    06:00 +24°C° 0 mm 1 mps 757 mmHg 79%
    07:00 +24°C° 0 mm 1 mps 757 mmHg 78%
    08:00 +26°C° 0 mm 2 mps 757 mmHg 70%
    09:00 +28°C° 0 mm 3 mps 757 mmHg 61%
    10:00 +30°C° 0 mm 3 mps 757 mmHg 53%
    11:00 +30°C° 0 mm 4 mps 757 mmHg 51%
    12:00 +32°C° 0 mm 4 mps 756 mmHg 49%
    13:00 +33°C° 0 mm 5 mps 755 mmHg 46%
    14:00 +33°C° 0 mm 5 mps 755 mmHg 48%
    15:00 +32°C° 0 mm 5 mps 755 mmHg 50%
    16:00 +30°C° 0 mm 5 mps 754 mmHg 52%
    17:00 +29°C° 0 mm 4 mps 755 mmHg 58%
    18:00 +27°C° 0 mm 4 mps 756 mmHg 64%
    19:00 +26°C° 0 mm 3 mps 756 mmHg 69%
    20:00 +26°C° 0 mm 3 mps 757 mmHg 71%
    21:00 +25°C° 0 mm 2 mps 757 mmHg 73%
    22:00 +25°C° 0 mm 1 mps 758 mmHg 74%
    23:00 +25°C° 0 mm 1 mps 757 mmHg 74%
    Show more